THEMIS A

Last updated on Sat Jul 05 2025 00:02:38 GMT+0000 (Coordinated Universal Time)

1 30580U 07004A 25184.85019021 -.00000397 00000+0 78941-3 0 9994 2 30580 3.8270 199.7382 8462181 69.0613 356.2131 0.87834757 62909
UTC large
Height (km)
Speed (km/s)
/
Latitude / Longitude
Inclination (degrees)
Orbital Period (minutes)
Azimuth
Elevation
Range (km)
Doppler Factor

Next 0 passes for location: London (51.5072 / 0.1276)

Sorry there are no passes over London.